« Back
NWS Peachtree City, Ga » Text Product » GA Regional Weather Roundup


Printer-friendly Version
Current Version              Previous Versions:   1  2  3  4  5  6  7  8  9  

Regional Weather Roundup

366
ASUS42 KFFC 240003
RWRGA
WEATHER ROUNDUP FOR GEORGIA
NATIONAL WEATHER SERVICE PEACHTREE CITY GA
800 PM EDT WED APR 23 2014

NOTE: "FAIR" INDICATES FEW OR NO CLOUDS BELOW 12,000 FEET WITH NO
SIGNIFICANT WEATHER AND/OR OBSTRUCTIONS TO VISIBILITY.

* = USE WITH CAUTION. THE STATIONS MARKED WITH AN ASTERISK MAY NOT
REPORT WEATHER SUCH AS PRECIPITATION, FOG, OR THUNDER AND ARE NOT
QUALITY CONTROLLED BY NWS.

THE REMARK "TC" DENOTES TEMPERATURE READING IN DEGREES CELSIUS.

GAZ001>058-240100-
NORTH GEORGIA

CITY           SKY/WX    TMP DP  RH WIND       PRES   REMARKS
ATLANTA        CLEAR     71  33  24 NW10      29.91S
6HR MIN TEMP:  71; 6HR MAX TEMP:  76;

ATHENS         CLEAR     74  33  22 CALM      29.87R
6HR MIN TEMP:  74; 6HR MAX TEMP:  82;

CHAMBLEE       CLEAR     70  34  26 NW12      29.91R
6HR MIN TEMP:  70; 6HR MAX TEMP:  76;

PEACHTREE CITY CLEAR     72  39  30 W5        29.91R
6HR MIN TEMP:  72; 6HR MAX TEMP:  78;

ROME           CLEAR     70  42  36 N5        29.92S
6HR MIN TEMP:  70; 6HR MAX TEMP:  76;

WEST ATLANTA   CLEAR     71  34  25 N7        29.92R
6HR MIN TEMP:  71; 6HR MAX TEMP:  76;

GAINESVILLE    CLEAR     70  39  32 W13       29.91R
6HR MIN TEMP:  70; 6HR MAX TEMP:  81;

CARTERSVILLE   CLEAR     68  38  33 N3        29.93S
6HR MIN TEMP:  68; 6HR MAX TEMP:  75;



CITY           SKY/WX    TMP DP  RH WIND       PRES   REMARKS
DALTON*        CLEAR     68  37  32 CALM      29.94S
LAWRENCEVILLE* CLEAR     72  36  26 W9        29.89S
KENNESAW*      CLEAR     72  34  25 N8        29.94R
$$

GAZ059>098-102>109-240100-
CENTRAL GEORGIA

CITY           SKY/WX    TMP DP  RH WIND       PRES   REMARKS
AUGUSTA-BUSH   CLEAR     73  44  35 N5        29.85R
6HR MIN TEMP:  72; 6HR MAX TEMP:  84;

AUGUSTA-DANIEL CLEAR     77  39  25 NW5       29.86R
6HR MIN TEMP:  77; 6HR MAX TEMP:  84;

COLUMBUS       CLEAR     80  40  23 N5        29.88S
6HR MIN TEMP:  78; 6HR MAX TEMP:  83;

MACON          CLEAR     74  42  31 NW5       29.87S
6HR MIN TEMP:  74; 6HR MAX TEMP:  83;

ROBINS AFB     CLEAR     73  46  39 N3        29.87R


CITY           SKY/WX    TMP DP  RH WIND       PRES   REMARKS
LAGRANGE*      CLEAR     76  41  28 CALM      29.91R
SYLVANIA*      CLEAR     74  51  43 CALM      29.85S
MILLEDGEVILLE* CLEAR     73  27  17 CALM      29.87R
$$

GAZ099>101-110>166-240100-
SOUTH GEORGIA

CITY           SKY/WX    TMP DP  RH WIND       PRES   REMARKS
SAVANNAH       CLEAR     76  53  44 SW6       29.85R
6HR MIN TEMP:  76; 6HR MAX TEMP:  85;

VALDOSTA       CLEAR     76  62  62 CALM      29.88R
6HR MIN TEMP:  76; 6HR MAX TEMP:  87;

ALMA           CLEAR     76  58  53 W3        29.87R
6HR MIN TEMP:  76; 6HR MAX TEMP:  83;

ST SIMONS      CLEAR     72  63  73 S5        29.87R
6HR MIN TEMP:  72; 6HR MAX TEMP:  84;

FT STEWART     CLEAR     76  62  62 NW1       29.85R
ALBANY         CLEAR     76  60  57 W3        29.90R
MOODY AFB      CLEAR     76  61  58 N6        29.87S
BRUNSWICK      CLEAR     73  61  64 CALM      29.87R


CITY           SKY/WX    TMP DP  RH WIND       PRES   REMARKS
BAINBRIDGE*    CLEAR     81  61  50 CALM      29.88S
MOULTRIE*      CLEAR     77  63  61 CALM      29.89S
VIDALIA*       CLEAR     77  54  44 CALM      29.87R
DOUGLAS*       CLEAR     79  55  44 CALM      29.89S
$$



USA.gov is the U.S. government's official web portal to all federal, state and local government web resources and services.